TimeAST,TemperatureF,Dew PointF,Humidity,Sea Level PressureIn,VisibilityMPH,Wind Direction,Wind SpeedMPH,Gust SpeedMPH,PrecipitationIn,Events,Conditions,WindDirDegrees,DateUTC
12:56 AM,75.9,71.1,85,29.96,10.0,East,4.6,-,0.01,,Mostly Cloudy,80,2012-12-21 04:56:00
1:56 AM,75.9,71.1,85,29.95,10.0,Calm,Calm,-,N/A,,Mostly Cloudy,0,2012-12-21 05:56:00
2:56 AM,75.9,72.0,87,29.94,10.0,Calm,Calm,-,0.01,,Mostly Cloudy,0,2012-12-21 06:56:00
3:56 AM,75.9,72.0,87,29.94,10.0,Calm,Calm,-,N/A,,Mostly Cloudy,0,2012-12-21 07:56:00
4:56 AM,75.9,72.0,87,29.94,10.0,Calm,Calm,-,N/A,,Mostly Cloudy,0,2012-12-21 08:56:00
5:56 AM,75.9,72.0,87,29.95,10.0,SSW,3.5,-,0.00,,Mostly Cloudy,210,2012-12-21 09:56:00
6:56 AM,75.9,71.1,85,29.96,10.0,Calm,Calm,-,N/A,,Mostly Cloudy,0,2012-12-21 10:56:00
7:56 AM,77.0,71.1,82,29.99,10.0,ESE,5.8,-,N/A,,Mostly Cloudy,110,2012-12-21 11:56:00
8:56 AM,79.0,71.1,77,30.01,10.0,ENE,12.7,-,N/A,,Mostly Cloudy,60,2012-12-21 12:56:00
9:56 AM,80.1,70.0,71,30.01,10.0,NE,10.4,-,N/A,,Mostly Cloudy,40,2012-12-21 13:56:00
10:56 AM,81.0,70.0,69,30.01,10.0,ENE,15.0,-,N/A,,Mostly Cloudy,60,2012-12-21 14:56:00
11:56 AM,81.0,69.1,67,29.99,10.0,ENE,12.7,-,N/A,,Mostly Cloudy,60,2012-12-21 15:56:00
12:56 PM,80.1,69.1,69,29.96,10.0,ENE,16.1,-,N/A,,Mostly Cloudy,60,2012-12-21 16:56:00
1:56 PM,80.1,69.1,69,29.94,10.0,NE,16.1,-,0.00,,Mostly Cloudy,50,2012-12-21 17:56:00
2:17 PM,78.8,69.8,74,29.95,2.0,East,15.0,24.2,0.00,Rain,Rain,100,2012-12-21 18:17:00
2:56 PM,75.0,73.0,94,29.94,2.5,East,9.2,-,0.19,Rain,Light Rain,80,2012-12-21 18:56:00
3:00 PM,75.2,73.4,94,29.93,3.0,East,10.4,-,0.01,Rain,Light Rain,80,2012-12-21 19:00:00
3:42 PM,75.2,73.4,94,29.94,1.8,East,10.4,-,0.01,Rain,Light Rain,100,2012-12-21 19:42:00
3:45 PM,75.2,73.4,94,29.94,3.0,East,11.5,-,0.08,Rain,Rain,80,2012-12-21 19:45:00
3:56 PM,75.0,73.0,94,29.94,3.0,ENE,9.2,-,0.10,Rain,Light Rain,70,2012-12-21 19:56:00
4:56 PM,75.9,72.0,87,29.93,10.0,ENE,9.2,-,0.01,,Mostly Cloudy,70,2012-12-21 20:56:00
5:56 PM,77.0,71.1,82,29.94,10.0,NE,11.5,-,0.00,,Overcast,50,2012-12-21 21:56:00
6:56 PM,75.9,71.1,85,29.95,10.0,ENE,10.4,-,0.01,,Scattered Clouds,70,2012-12-21 22:56:00
7:56 PM,77.0,70.0,79,29.96,10.0,ENE,10.4,-,0.00,Rain,Light Rain,70,2012-12-21 23:56:00
8:56 PM,73.9,71.1,91,29.98,10.0,ENE,9.2,-,0.01,,Overcast,70,2012-12-22 00:56:00
9:56 PM,75.0,72.0,90,29.99,10.0,Calm,Calm,-,N/A,,Mostly Cloudy,0,2012-12-22 01:56:00
10:56 PM,73.9,71.1,91,29.98,10.0,SW,3.5,-,N/A,,Scattered Clouds,220,2012-12-22 02:56:00
11:56 PM,73.0,71.1,93,29.98,5.0,SE,4.6,-,0.01,Rain,Light Rain,140,2012-12-22 03:56:00